Temp
68 68 61 57 47 47 43 45 56 54 58 65 71 68 68 73 68 60 75 78 77 76 77 78 78 79 79 79 79 78 78 79 80 79 80 80 80 79 79 80 79 80 80 80 79 79 78 78 77
65 68 57 50 42 36 41 52 52 56 64 67 70 72 71 69 71 72 74 78 77 77 77 77 78 78 79 79 79 78 78 79 79 79 79 80 80 79 79 80 80 80 79 78 78 77 76 76 76
67 68 49 42 40 38 42 49 53 60 63 64 65 71 72 67 73 75 77 78 77 76 77 77 77 78 78 78 78 78 78 79 79 79 79 79 79 79 79 79 79 78 77 77 77 76 76 76 76
59 55 50 40 37 45 47 51 56 57 62 64 63 58 70 75 75 78 79 78 76 75 76 76 77 78 78 77 78 78 78 78 78 78 78 79 79 79 79 77 76 76 76 76 76 75 75 75 76
58 50 38 36 37 44 48 53 56 55 58 60 59 56 61 75 78 78 77 78 74 75 75 76 77 77 77 77 77 78 78 78 78 78 78 78 78 79 77 76 76 76 76 76 76 76 75 75 75
45 46 34 31 37 45 49 53 53 54 57 57 55 55 58 68 73 75 78 76 77 74 75 76 75 76 76 77 77 77 77 77 77 77 78 77 78 77 77 76 76 76 76 76 76 76 75 75 75
46 41 34 35 36 40 47 54 51 53 55 55 59 53 59 65 66 73 76 77 75 75 74 75 75 75 75 75 76 76 76 76 76 77 77 76 76 76 77 76 76 76 76 75 75 75 75 75 74
50 44 37 38 36 38 50 52 56 55 54 60 63 52 53 63 65 64 71 72 73 73 73 72 73 74 73 74 74 74 75 74 75 75 73 72 72 74 75 74 75 75 75 74 74 75 74 74 73
53 39 34 36 38 42 51 49 56 58 54 58 62 59 63 65 67 64 62 69 70 71 72 72 72 72 72 73 73 73 73 73 73 72 70 71 73 77 75 71 71 73 74 74 74 74 73 71 71
43 38 40 45 46 45 50 50 51 49 52 53 58 62 65 66 64 60 58 67 68 68 70 72 71 71 72 74 72 72 72 73 74 75 74 72 72 77 76 71 70 72 72 72 73 73 71 69 65
43 38 46 48 50 51 49 49 51 48 45 51 53 59 62 62 62 61 60 69 68 69 72 72 71 71 72 73 72 72 71 71 73 74 73 70 71 73 72 70 68 67 66 67 67 67 65 64 65
43 48 48 49 51 51 47 53 47 49 51 59 59 60 61 58 58 61 59 65 67 68 71 72 72 71 73 73 72 72 72 71 73 74 72 71 69 72 71 69 67 66 65 64 63 62 64 65 66
44 47 51 53 52 52 52 48 48 51 57 60 59 61 58 57 58 62 61 60 65 62 64 65 67 70 72 71 72 72 71 71 74 72 71 72 69 68 67 74 71 66 65 64 63 63 64 65 68
49 49 48 50 51 50 47 48 49 53 58 57 59 58 57 59 61 59 60 61 62 63 63 64 66 66 70 70 71 72 72 74 73 72 70 72 71 69 68 68 66 66 66 65 65 65 65 66 68
50 43 49 50 52 49 52 45 46 55 59 57 59 60 58 61 61 58 60 61 62 62 64 64 65 66 66 69 70 70 71 74 73 72 70 73 71 70 69 69 68 68 67 67 67 67 66 66 68
45 44 36 49 50 50 48 40 51 55 53 54 57 59 60 60 58 59 60 60 61 62 62 64 66 65 65 66 69 69 71 74 73 70 73 73 71 71 69 68 66 66 67 67 66 66 65 66 67
40 31 35 41 52 49 46 39 49 55 53 52 55 56 58 60 60 60 60 60 60 62 62 62 64 63 64 67 70 70 72 73 71 69 71 71 71 70 69 68 66 67 66 65 67 65 67 66 66
35 36 40 38 48 48 42 40 48 53 54 50 51 53 55 58 59 60 60 60 60 61 62 62 63 63 65 68 67 68 70 69 70 69 70 71 71 70 68 68 68 67 66 66 66 66 66 67 67
41 41 39 45 48 45 43 43 46 51 52 52 51 53 54 58 58 59 60 60 60 60 60 61 62 63 65 66 65 65 67 67 68 69 69 70 71 71 69 69 68 69 68 67 68 67 67 64 64
45 42 39 44 49 46 43 43 48 51 51 52 54 54 57 55 57 58 59 59 60 59 61 61 62 64 64 67 68 69 68 68 69 70 69 70 70 70 69 69 69 69 68 67 67 67 64 64 63
42 39 40 42 49 46 42 40 42 49 54 57 58 57 58 57 56 58 58 59 60 61 61 62 63 64 65 65 65 64 67 67 66 67 67 69 71 69 69 69 68 67 66 65 66 65 65 62 62
35 46 45 43 38 31 44 30 44 46 51 56 55 53 56 57 58 58 58 59 60 60 62 61 63 64 66 65 64 65 65 64 66 67 67 68 70 68 68 68 67 66 66 64 64 64 63 62 60
39 46 43 42 37 35 38 34 36 48 46 50 51 52 54 58 58 58 58 60 60 60 60 61 62 64 64 64 65 64 64 64 65 66 65 65 65 67 67 67 66 65 64 63 63 63 63 62 61
47 42 41 39 37 23 35 35 36 42 45 48 51 54 54 56 57 58 59 59 59 59 59 60 60 61 62 63 63 67 65 64 64 62 61 62 62 64 65 65 64 64 64 64 63 63 63 62 61
44 34 19 21 18 21 37 35 37 46 49 48 48 50 54 54 57 56 57 58 57 58 58 60 60 59 61 62 63 61 62 62 62 62 63 61 60 60 62 63 63 63 63 63 64 63 63 62 61
36 35 28 22 25 25 37 28 36 47 52 49 50 51 56 54 54 55 57 59 59 58 58 60 59 59 61 61 61 62 61 61 61 60 61 60 61 61 61 63 63 63 63 62 62 62 63 63 63
35 28 40 31 33 28 29 35 40 48 47 49 48 48 52 55 54 54 56 56 58 59 59 60 60 61 60 61 61 61 61 61 60 61 61 61 60 60 61 61 61 61 61 61 62 62 62 62 63
39 41 28 27 20 23 28 26 32 38 41 46 47 48 51 54 54 55 56 56 57 58 59 61 61 62 62 62 62 62 62 62 62 62 61 60 61 61 60 61 61 61 61 61 61 60 60 60 59
34 30 32 27 28 25 22 28 43 39 42 42 45 49 50 51 52 52 53 56 57 57 58 58 60 61 62 63 62 62 61 62 61 61 62 61 61 61 60 61 60 59 59 60 60 59 59 59 57
39 33 29 20 21 29 25 29 44 42 43 45 45 49 50 49 50 53 52 53 54 55 57 59 59 59 62 62 63 62 62 62 62 62 63 62 61 61 60 60 59 59 58 58 59 57 57 56 56
MSLP
1015.38 1015.40 1015.48 1015.60 1016.37 1014.97 1010.99 1010.57 1009.93 1009.29 1008.90 1007.79 1007.58 1007.09 1006.45 1006.23 1006.13 1006.14 1004.99 1005.53 1006.21 1007.34 1007.81 1008.24 1008.85 1009.80 1010.30 1010.95 1011.62 1012.27 1012.75 1013.15 1013.40 1013.85 1014.33 1014.77 1015.18 1015.48 1015.90 1016.10 1016.55 1016.72 1016.97 1017.13 1017.33 1017.64 1017.88 1018.03 1018.26
1015.51 1015.42 1015.86 1016.09 1016.14 1014.36 1010.39 1010.35 1009.88 1009.47 1008.57 1007.71 1007.27 1006.97 1006.27 1005.54 1005.73 1005.68 1005.99 1005.72 1006.59 1007.45 1007.83 1008.13 1008.60 1009.58 1010.31 1010.85 1011.45 1012.19 1012.69 1013.17 1013.46 1013.86 1014.36 1014.74 1015.17 1015.49 1015.77 1016.12 1016.56 1017.04 1017.31 1017.61 1017.94 1018.22 1018.36 1018.55 1018.63
1015.61 1015.49 1016.21 1016.59 1015.63 1011.81 1011.28 1010.15 1009.84 1009.90 1009.22 1008.48 1007.94 1006.53 1006.12 1005.33 1004.93 1004.75 1005.03 1006.19 1006.25 1007.91 1008.15 1008.33 1008.52 1009.20 1010.23 1010.76 1011.26 1012.02 1012.66 1013.17 1013.54 1013.94 1014.41 1014.77 1015.19 1015.64 1015.87 1016.25 1016.70 1017.24 1017.70 1017.99 1018.32 1018.61 1018.73 1018.80 1018.83
1015.92 1016.26 1016.85 1016.65 1014.05 1010.87 1011.60 1010.50 1010.25 1010.33 1009.49 1008.91 1009.15 1008.13 1006.54 1004.97 1004.15 1004.17 1005.10 1005.67 1006.39 1007.36 1008.24 1008.80 1008.91 1009.01 1010.09 1010.77 1011.23 1011.77 1012.58 1013.07 1013.65 1014.07 1014.47 1014.83 1015.30 1015.71 1016.13 1016.59 1016.98 1017.36 1017.98 1018.33 1018.52 1018.75 1018.99 1019.09 1019.09
1016.24 1016.81 1017.36 1016.48 1013.87 1012.74 1012.48 1012.08 1011.15 1010.83 1010.39 1010.12 1010.20 1009.35 1008.46 1005.81 1004.33 1004.10 1005.12 1005.99 1007.01 1007.13 1007.82 1008.69 1009.17 1009.22 1009.82 1010.69 1011.23 1011.62 1012.36 1012.97 1013.64 1014.14 1014.51 1014.92 1015.43 1015.85 1016.45 1016.87 1017.21 1017.53 1018.07 1018.62 1018.82 1018.89 1019.08 1019.23 1019.30
1016.90 1017.29 1017.56 1016.55 1014.26 1013.51 1013.06 1012.61 1012.40 1011.23 1010.20 1010.72 1010.75 1010.37 1008.97 1007.16 1005.91 1004.88 1004.67 1005.55 1006.73 1007.08 1007.58 1008.60 1009.09 1009.59 1009.87 1010.50 1011.11 1011.55 1012.20 1012.90 1013.57 1014.18 1014.55 1015.01 1015.49 1015.99 1016.58 1017.04 1017.41 1017.68 1018.06 1018.64 1018.99 1019.08 1019.32 1019.47 1019.46
1016.85 1017.36 1017.05 1016.40 1015.17 1013.85 1013.05 1012.17 1012.22 1011.41 1010.64 1010.24 1010.70 1010.61 1009.52 1008.48 1008.26 1006.63 1005.32 1005.04 1006.32 1007.00 1007.33 1008.33 1008.88 1009.51 1010.21 1010.49 1011.12 1011.55 1012.11 1012.76 1013.57 1014.16 1014.66 1015.14 1015.66 1016.17 1016.63 1017.13 1017.49 1017.79 1018.11 1018.66 1019.11 1019.32 1019.45 1019.63 1019.71
1016.84 1017.31 1016.70 1015.88 1014.89 1012.96 1012.67 1012.41 1011.88 1011.45 1009.87 1010.10 1010.10 1009.87 1009.26 1008.44 1008.62 1008.67 1007.50 1005.98 1006.06 1006.94 1007.55 1008.42 1008.66 1009.31 1010.14 1010.75 1011.13 1011.63 1012.10 1012.73 1013.49 1014.14 1014.72 1015.34 1015.86 1016.28 1016.73 1017.27 1017.62 1018.03 1018.33 1018.71 1019.18 1019.51 1019.76 1019.85 1019.91
1016.77 1016.67 1015.65 1015.18 1014.83 1012.96 1012.61 1012.42 1011.53 1010.68 1010.30 1009.60 1009.33 1009.32 1008.96 1008.88 1009.17 1009.08 1008.84 1006.73 1006.52 1007.10 1007.25 1008.20 1008.88 1009.39 1009.96 1010.75 1011.19 1011.62 1012.21 1012.79 1013.54 1014.24 1014.73 1015.45 1016.07 1016.29 1016.89 1017.46 1017.83 1018.28 1018.60 1018.91 1019.24 1019.57 1019.86 1020.04 1020.10
1016.42 1015.68 1014.63 1014.47 1013.76 1012.88 1012.33 1012.04 1011.50 1010.97 1010.51 1009.49 1009.64 1009.22 1009.05 1008.51 1008.98 1008.45 1008.62 1007.06 1006.36 1006.55 1007.18 1008.03 1008.71 1009.46 1009.85 1010.50 1011.16 1011.46 1012.19 1012.78 1013.38 1014.05 1014.65 1015.51 1015.99 1016.56 1016.91 1017.48 1017.99 1018.35 1018.78 1019.16 1019.45 1019.70 1019.90 1020.12 1020.27
1015.19 1014.58 1014.02 1013.52 1013.03 1012.63 1012.08 1011.49 1011.38 1010.95 1010.52 1009.51 1009.33 1008.82 1008.63 1008.07 1008.47 1009.09 1008.54 1006.11 1005.92 1005.80 1006.51 1007.90 1008.23 1009.31 1009.99 1010.65 1011.14 1011.59 1012.18 1012.73 1013.29 1013.90 1014.57 1015.38 1016.04 1016.63 1017.14 1017.61 1018.07 1018.47 1018.90 1019.33 1019.65 1019.89 1020.06 1020.25 1020.32
1014.06 1013.45 1013.24 1012.34 1012.29 1012.10 1011.58 1011.24 1010.82 1010.55 1009.40 1008.77 1008.77 1008.09 1007.75 1007.37 1008.49 1008.56 1008.29 1006.77 1006.19 1005.55 1005.62 1007.47 1008.34 1009.15 1009.88 1010.65 1011.16 1011.64 1012.21 1012.65 1013.10 1013.82 1014.51 1015.19 1015.96 1016.49 1017.00 1017.57 1018.12 1018.53 1018.95 1019.41 1019.69 1019.90 1019.95 1020.15 1020.13
1012.96 1012.44 1012.14 1011.55 1011.22 1010.97 1010.83 1010.34 1009.49 1008.68 1007.89 1008.17 1007.57 1008.05 1007.62 1007.53 1007.64 1007.93 1008.08 1007.54 1003.69 1006.05 1006.08 1007.20 1008.18 1009.07 1009.89 1010.72 1011.24 1011.64 1012.24 1012.68 1013.06 1013.74 1014.57 1015.12 1015.77 1016.41 1016.90 1017.02 1017.67 1018.30 1018.75 1019.13 1019.47 1019.66 1019.80 1019.91 1019.95
1011.91 1011.68 1011.19 1010.87 1010.45 1010.55 1010.67 1009.90 1010.18 1007.41 1007.22 1007.17 1006.88 1006.68 1007.10 1007.07 1007.52 1007.52 1007.50 1007.43 1004.63 1004.78 1006.35 1007.06 1008.23 1009.27 1009.81 1010.71 1011.36 1011.74 1011.97 1012.40 1012.98 1013.70 1014.39 1014.94 1015.43 1016.20 1016.65 1017.14 1017.66 1018.07 1018.37 1018.78 1019.11 1019.40 1019.60 1019.67 1019.59
1011.59 1011.22 1010.48 1009.71 1009.74 1009.95 1010.05 1008.94 1008.11 1006.02 1006.44 1005.88 1005.54 1005.11 1005.70 1005.98 1006.85 1006.61 1006.28 1007.02 1007.84 1005.77 1006.47 1006.90 1007.75 1009.01 1010.08 1010.33 1011.09 1011.71 1011.92 1012.06 1012.73 1013.47 1014.19 1014.53 1015.24 1015.88 1016.52 1017.03 1017.54 1017.75 1018.02 1018.45 1018.86 1019.09 1019.24 1019.45 1019.57
1011.38 1010.82 1010.09 1008.74 1008.98 1009.31 1009.61 1006.88 1006.36 1005.78 1005.44 1004.56 1004.34 1004.94 1005.17 1005.33 1006.28 1005.97 1006.53 1007.46 1006.14 1006.98 1006.45 1006.86 1007.47 1008.10 1009.52 1010.63 1010.71 1011.31 1011.77 1011.95 1012.60 1013.38 1013.69 1014.11 1014.92 1015.41 1016.17 1016.84 1017.42 1017.59 1017.91 1018.17 1018.49 1018.93 1019.28 1019.39 1019.47
1011.25 1010.96 1010.08 1009.15 1008.18 1008.55 1008.80 1006.94 1005.52 1005.03 1004.53 1004.44 1004.24 1004.13 1003.95 1004.52 1004.63 1005.45 1006.62 1006.26 1008.02 1007.05 1007.24 1007.56 1007.59 1008.48 1008.33 1010.62 1010.48 1011.14 1011.45 1011.97 1012.24 1013.11 1013.35 1013.86 1014.42 1015.13 1015.78 1016.40 1016.92 1017.22 1017.59 1018.08 1018.48 1018.81 1019.03 1019.37 1019.47
1011.33 1010.65 1009.80 1008.86 1007.59 1007.71 1007.65 1006.31 1004.81 1004.55 1004.24 1004.10 1003.73 1003.63 1003.65 1003.63 1004.02 1004.77 1005.57 1007.19 1008.03 1007.58 1007.82 1008.07 1008.21 1007.63 1008.91 1009.86 1010.38 1011.04 1011.38 1011.97 1012.41 1012.93 1013.38 1013.67 1014.23 1014.90 1015.59 1016.10 1016.53 1016.93 1017.50 1017.88 1018.35 1018.59 1018.87 1019.12 1019.28
1010.96 1009.98 1009.35 1008.12 1007.30 1007.20 1006.81 1005.92 1004.65 1003.92 1003.36 1003.42 1003.88 1004.11 1004.28 1004.19 1004.92 1004.27 1006.72 1007.45 1007.82 1007.99 1007.73 1007.89 1008.27 1008.14 1009.10 1010.04 1010.44 1011.07 1011.51 1011.57 1012.54 1012.99 1013.45 1013.66 1014.10 1014.69 1015.32 1015.73 1016.31 1016.67 1017.17 1017.60 1018.11 1018.59 1018.87 1019.09 1019.33
1009.96 1009.56 1008.99 1008.25 1007.68 1007.35 1006.42 1005.04 1003.82 1003.41 1003.17 1003.03 1002.61 1002.94 1002.90 1004.08 1004.28 1005.27 1006.73 1007.65 1007.92 1007.73 1007.70 1007.99 1008.05 1008.25 1008.54 1009.91 1009.97 1010.72 1010.93 1011.56 1012.41 1012.89 1013.35 1013.70 1014.09 1014.54 1015.10 1015.50 1015.99 1016.55 1016.92 1017.41 1017.98 1018.32 1018.86 1019.10 1019.26
1009.32 1009.09 1008.72 1008.14 1007.08 1006.93 1006.68 1005.00 1003.67 1003.01 1002.66 1002.46 1002.19 1002.03 1002.53 1003.64 1004.01 1005.63 1006.37 1006.86 1007.50 1007.64 1007.67 1007.58 1007.93 1008.39 1008.38 1009.43 1010.07 1010.66 1010.98 1011.74 1012.49 1013.09 1013.54 1013.65 1013.86 1014.32 1014.77 1015.10 1015.58 1016.25 1016.65 1017.25 1017.83 1018.23 1018.42 1019.24 1019.42
1009.54 1008.89 1008.60 1008.15 1007.97 1007.57 1006.78 1006.53 1004.90 1003.80 1003.17 1002.88 1002.48 1002.40 1002.96 1003.41 1004.19 1005.05 1005.96 1006.31 1006.92 1007.37 1007.74 1007.57 1007.21 1007.73 1007.93 1009.38 1009.90 1010.31 1010.65 1011.59 1012.08 1012.52 1013.35 1013.53 1013.61 1014.08 1014.48 1014.85 1015.29 1015.94 1016.55 1017.10 1017.65 1018.14 1018.83 1019.26 1019.65
1009.76 1009.20 1009.02 1008.76 1008.57 1008.03 1007.25 1007.37 1007.11 1005.02 1004.12 1004.03 1003.71 1003.38 1003.44 1003.57 1004.22 1005.48 1005.84 1005.89 1006.52 1007.12 1007.41 1007.50 1007.20 1007.77 1008.39 1008.08 1009.80 1010.62 1010.81 1011.31 1011.70 1012.39 1013.13 1013.30 1013.62 1013.79 1014.23 1014.53 1014.99 1015.60 1016.17 1016.89 1017.33 1017.99 1018.49 1019.16 1019.77
1009.60 1009.48 1008.97 1008.69 1008.75 1008.68 1007.81 1007.43 1007.31 1006.39 1006.10 1005.51 1005.02 1004.75 1004.34 1004.37 1004.86 1005.58 1005.95 1006.63 1006.81 1007.51 1007.58 1008.01 1007.73 1007.46 1008.44 1008.61 1009.23 1010.54 1010.69 1011.15 1011.25 1012.71 1013.33 1013.37 1013.63 1013.97 1014.21 1014.44 1014.90 1015.33 1015.98 1016.46 1016.79 1017.34 1017.85 1018.43 1019.56
1010.02 1010.03 1010.30 1010.31 1010.21 1009.40 1008.45 1008.37 1009.34 1007.77 1006.93 1006.85 1006.67 1006.12 1005.41 1005.36 1005.50 1006.29 1006.59 1006.93 1007.27 1007.66 1007.89 1008.08 1008.20 1008.00 1008.36 1008.73 1009.49 1010.38 1010.38 1010.71 1011.55 1012.30 1012.74 1013.15 1013.67 1013.98 1014.17 1014.55 1015.03 1015.43 1015.83 1016.04 1016.40 1016.72 1016.59 1017.31 1018.91
1011.04 1011.36 1011.52 1011.28 1010.97 1010.36 1009.24 1009.86 1010.42 1008.59 1007.99 1007.74 1007.14 1007.39 1006.65 1006.54 1006.45 1006.70 1006.89 1006.64 1007.25 1007.70 1008.00 1008.31 1008.75 1008.66 1008.66 1008.83 1010.08 1010.46 1010.88 1011.15 1011.52 1012.05 1012.25 1012.98 1013.26 1013.65 1014.13 1014.39 1014.96 1015.26 1015.69 1015.71 1016.14 1016.64 1016.43 1016.52 1016.97
1011.62 1012.03 1012.11 1012.00 1011.74 1011.64 1011.81 1011.15 1009.58 1009.44 1008.64 1008.57 1008.62 1008.32 1008.01 1007.40 1006.79 1007.03 1006.98 1007.11 1007.15 1007.61 1008.11 1008.32 1008.29 1008.40 1009.27 1009.23 1010.12 1010.67 1011.05 1011.44 1012.03 1012.11 1012.40 1012.81 1013.27 1013.75 1014.21 1014.42 1014.78 1015.05 1015.44 1015.90 1016.61 1016.89 1016.29 1015.98 1017.14
1012.44 1012.64 1012.95 1013.08 1013.59 1013.29 1013.21 1012.68 1012.50 1011.43 1010.92 1009.77 1009.10 1008.77 1008.43 1007.67 1007.44 1007.22 1007.26 1007.55 1007.76 1007.59 1007.47 1007.69 1007.86 1008.33 1008.90 1009.49 1009.87 1010.37 1010.72 1010.99 1011.69 1012.04 1012.54 1012.67 1012.89 1013.70 1014.17 1014.09 1014.65 1015.10 1015.53 1016.04 1016.22 1015.97 1015.74 1016.02 1017.01
1013.70 1013.90 1014.24 1014.71 1014.86 1014.42 1014.15 1014.21 1013.40 1012.69 1011.92 1011.31 1010.73 1010.10 1009.56 1008.67 1008.39 1008.31 1008.06 1007.94 1007.97 1007.57 1007.40 1007.37 1007.75 1008.06 1008.52 1009.35 1009.86 1010.35 1010.84 1011.17 1011.33 1011.57 1011.68 1012.35 1012.83 1013.25 1013.25 1013.73 1014.47 1014.88 1015.56 1015.65 1015.95 1015.34 1015.89 1016.23 1016.89
1015.00 1015.30 1015.43 1015.99 1016.39 1015.79 1015.33 1015.33 1014.03 1013.31 1012.70 1012.21 1011.81 1011.14 1010.57 1010.04 1009.54 1009.19 1008.95 1008.74 1008.36 1008.09 1007.89 1007.75 1007.78 1007.94 1008.08 1008.66 1009.33 1009.95 1010.42 1010.69 1010.87 1011.23 1011.32 1011.84 1012.10 1012.46 1012.91 1013.66 1013.91 1013.88 1014.66 1015.07 1015.28 1015.78 1016.03 1016.42 1016.68
Wind_Speed
4 4 2 3 2 7 22 9 8 2 5 7 12 7 12 15 5 7 4 9 19 21 20 22 26 23 21 21 21 20 19 19 20 20 20 20 19 20 19 17 18 19 18 18 20 20 18 18 16
4 2 4 1 5 9 7 18 18 3 6 5 9 15 20 22 5 2 12 19 20 18 18 19 26 24 22 20 22 21 20 19 19 20 19 19 20 21 20 17 18 18 17 19 18 18 17 14 12
4 3 4 3 6 20 9 4 7 3 11 11 8 8 9 6 4 14 9 20 22 15 14 17 25 25 22 20 24 22 21 20 18 19 19 18 20 21 19 17 20 19 17 17 17 15 14 12 9
1 3 3 6 21 28 13 13 19 17 17 2 12 11 11 6 11 8 22 22 20 19 14 18 22 25 22 20 23 23 21 20 19 19 19 18 20 20 19 20 19 19 16 15 16 15 13 11 9
1 1 3 7 26 16 12 10 16 15 13 13 8 10 14 11 5 18 20 18 18 19 16 16 20 22 23 21 22 23 22 21 20 20 20 18 21 20 22 20 18 18 17 14 14 15 13 11 8
1 2 4 14 25 17 12 10 12 18 20 7 8 9 9 13 4 13 22 20 18 18 18 15 18 19 21 22 21 23 22 21 21 20 20 20 21 21 20 19 18 18 17 16 14 14 13 10 8
4 3 6 14 16 18 15 8 13 20 21 15 3 5 7 18 11 2 14 21 17 17 18 15 14 15 18 20 19 22 22 21 20 20 20 20 20 19 19 17 16 17 18 16 13 13 12 10 7
3 3 8 11 17 23 18 9 13 15 26 5 7 7 7 4 14 17 8 13 18 16 16 14 13 12 12 12 16 20 20 20 20 20 17 16 14 15 17 16 15 16 17 16 13 12 10 8 6
2 6 11 17 15 24 14 14 9 6 6 10 5 8 12 15 14 15 18 13 13 13 15 14 13 11 11 11 12 17 19 20 19 16 17 14 9 13 13 12 13 15 15 15 13 12 10 6 3
7 5 13 7 11 14 15 12 8 3 9 15 8 13 14 10 9 11 17 16 18 18 17 15 13 11 12 11 13 12 13 12 12 13 13 8 8 13 8 12 14 15 13 12 12 11 9 6 1
7 9 13 15 12 13 12 8 2 3 8 16 14 19 14 7 12 5 19 15 18 20 15 15 13 11 13 11 8 7 7 9 9 15 12 9 7 8 5 6 6 6 8 4 5 5 3 4 3
11 13 15 16 16 15 12 12 6 10 16 14 8 18 14 11 10 14 12 16 16 18 21 17 13 12 13 9 8 9 8 9 9 12 14 10 6 8 6 6 7 6 4 5 5 3 5 5 6
11 15 15 17 16 19 16 19 20 21 24 19 24 17 11 12 14 17 8 12 13 14 14 12 10 13 11 11 9 10 10 9 10 12 10 10 9 8 6 7 6 6 5 4 5 5 4 5 6
5 9 16 17 16 7 14 19 7 19 22 20 21 16 14 12 16 8 7 4 5 15 15 13 12 5 13 10 11 10 10 11 10 10 9 13 10 9 8 7 5 6 6 4 5 5 5 5 3
11 12 11 10 12 9 8 21 24 30 20 17 17 13 13 12 11 9 5 4 12 11 12 11 11 8 3 14 13 10 9 10 9 10 10 14 12 11 10 8 6 6 6 6 5 4 4 3 2
5 4 2 3 12 7 9 23 16 10 5 10 9 13 13 11 15 8 4 1 8 12 12 10 6 8 5 7 11 6 9 9 9 8 11 14 12 12 10 8 6 5 5 5 4 3 3 3 4
3 5 5 12 10 8 13 11 13 8 4 7 10 9 8 8 9 13 13 6 6 9 9 11 13 8 6 7 10 11 11 11 8 8 9 11 10 10 9 7 5 6 5 4 4 2 3 2 2
5 7 8 12 6 17 11 21 20 16 9 7 7 7 6 7 7 11 12 8 5 3 5 7 6 9 2 7 6 7 7 7 7 7 7 11 9 9 7 6 6 5 5 5 3 3 2 3 4
14 13 15 16 9 5 17 19 19 14 8 4 8 7 11 13 8 13 7 6 5 3 5 6 6 9 7 9 9 9 10 8 6 6 8 9 9 10 9 7 6 6 6 6 6 3 5 2 1
8 11 12 7 6 5 9 17 16 7 5 5 8 6 9 11 14 12 10 9 7 6 6 6 4 7 8 10 10 10 10 8 9 7 7 8 9 9 7 7 7 8 6 6 5 4 2 1 3
6 5 7 15 10 9 6 9 8 1 4 5 9 2 14 15 17 14 11 10 7 8 7 6 9 13 12 12 5 5 8 7 7 8 7 9 11 9 7 7 6 6 5 5 4 4 5 3 0
5 3 12 14 11 4 4 6 8 15 4 6 7 6 11 12 9 9 11 9 11 9 7 4 6 14 15 15 9 10 10 11 8 9 7 8 11 8 8 7 7 6 4 6 4 4 3 1 2
8 7 11 8 9 4 4 4 10 8 12 13 5 4 5 14 18 13 10 9 9 9 6 5 3 14 10 12 13 11 12 9 7 8 10 8 6 8 7 7 7 6 4 6 7 6 5 3 2
12 9 10 3 1 3 4 4 9 15 9 13 11 8 1 7 13 8 8 7 9 8 9 4 5 9 9 8 8 21 17 10 9 7 7 6 4 4 6 7 6 6 6 8 8 6 8 6 3
14 6 4 5 4 4 4 11 8 17 9 10 13 15 5 5 11 8 4 6 6 9 8 8 7 8 9 10 12 5 8 10 10 11 10 9 5 3 5 5 6 5 5 7 8 8 9 10 5
6 3 3 4 1 3 8 6 7 13 11 6 14 15 8 4 5 5 5 9 9 7 6 9 8 5 10 7 7 3 1 3 5 4 5 4 5 5 6 6 4 2 3 3 5 5 5 5 7
7 4 1 3 1 4 5 9 6 18 18 13 14 14 12 12 5 4 5 2 5 10 11 10 11 9 9 12 8 6 5 4 6 5 5 4 4 3 6 6 6 6 5 4 5 4 4 6 6
5 4 5 5 5 5 3 5 8 13 11 12 13 11 9 10 10 10 7 3 5 5 4 7 10 14 13 12 12 9 9 7 9 7 9 6 5 7 7 6 6 5 6 6 7 5 4 5 4
7 6 4 4 3 4 2 4 12 12 9 8 9 8 8 10 9 7 7 6 4 1 5 5 6 11 12 11 9 10 7 11 8 7 8 9 9 7 7 7 7 8 6 6 5 4 5 7 7
4 6 4 4 5 3 2 4 8 13 9 8 10 10 9 7 7 7 7 6 6 6 5 2 5 5 9 10 11 13 13 12 11 13 15 10 12 10 9 9 7 6 5 5 6 7 6 7 9
Wind_Direction
332 310 100 31 184 240 245 239 249 352 229 215 228 225 215 231 226 230 166 144 138 154 156 153 151 152 152 151 152 151 151 150 147 143 142 140 141 139 131 130 123 116 122 112 107 108 108 108 101
332 278 44 86 217 228 261 223 252 278 268 279 255 242 255 262 171 152 149 144 142 152 155 154 150 150 153 152 152 152 152 154 151 147 147 147 147 140 136 136 126 120 116 108 106 110 109 108 108
312 302 99 169 227 232 234 44 218 333 319 327 312 221 242 230 207 169 144 144 137 149 154 155 151 149 154 154 152 153 155 157 153 145 150 148 147 141 138 131 125 116 110 110 113 111 110 112 107
6 3 26 244 237 246 255 303 308 310 313 342 4 323 321 309 161 163 145 141 143 147 151 155 152 147 152 154 153 153 157 157 155 150 153 149 149 139 131 125 121 118 117 117 116 113 110 110 105
360 116 252 246 252 261 278 293 309 298 293 290 13 311 304 280 215 123 140 141 150 145 145 152 155 151 152 156 158 155 157 157 157 154 156 150 147 136 129 129 127 121 122 124 120 118 117 115 108
45 118 242 246 256 273 279 265 280 287 281 297 350 326 286 331 286 139 145 145 154 142 144 152 155 154 154 158 158 157 157 156 158 158 155 146 140 134 133 128 129 128 131 127 125 122 121 119 112
172 198 232 260 277 283 271 259 253 255 272 272 182 277 265 293 331 303 152 144 143 146 146 152 154 151 156 158 157 156 158 154 156 155 152 143 135 139 134 130 129 131 131 128 129 128 126 123 107
181 267 233 238 249 271 269 270 266 254 256 249 149 235 255 302 317 334 282 143 142 145 146 151 149 151 153 161 154 154 151 150 150 147 134 133 135 134 134 132 132 135 133 128 130 131 126 123 118
173 230 242 239 244 255 278 285 282 264 293 254 183 262 287 299 297 295 309 154 149 147 142 147 153 154 151 158 154 147 147 144 141 133 128 127 147 140 149 131 118 125 126 131 133 134 131 128 127
187 223 247 232 242 266 275 265 265 318 296 278 287 268 267 290 321 284 283 184 164 155 151 152 155 155 152 158 156 148 146 145 145 143 139 134 145 155 137 135 128 124 120 125 136 140 145 142 167
200 231 241 254 259 252 285 261 285 244 255 249 253 260 274 294 297 248 325 226 171 157 146 157 149 149 154 155 150 145 144 144 143 146 138 143 138 149 148 139 132 127 121 127 127 139 151 168 193
251 237 237 253 249 258 276 261 232 217 234 254 247 248 258 280 278 286 295 286 174 154 144 158 142 143 151 152 156 148 147 148 149 151 143 152 144 155 158 144 144 139 143 148 162 179 184 198 222
249 262 254 254 250 240 238 238 227 231 237 227 237 249 214 256 272 266 262 312 157 115 119 99 132 144 146 152 155 153 150 153 153 155 154 159 154 157 160 163 143 148 155 167 182 189 198 216 204
265 257 251 254 252 224 236 253 236 249 248 236 238 230 206 217 256 231 267 248 219 117 120 103 95 81 149 154 157 159 157 159 158 163 170 162 155 158 158 160 155 169 171 179 186 181 203 210 192
267 274 272 255 237 228 257 258 245 254 265 242 239 215 201 209 212 222 238 149 233 137 137 127 125 99 145 161 163 169 167 160 162 169 169 163 153 158 162 168 179 186 174 180 186 186 167 169 201
265 258 291 234 211 209 151 263 280 237 241 249 189 198 194 202 190 187 199 140 266 165 136 129 116 111 69 198 168 166 172 168 159 160 164 160 151 156 159 168 174 170 157 160 151 157 148 162 166
268 294 285 300 230 192 198 272 251 271 292 233 208 214 227 170 176 186 187 225 235 235 169 153 142 137 99 225 158 154 156 169 148 146 149 149 142 145 149 154 156 157 148 152 159 146 145 151 174
295 279 267 267 265 202 211 254 271 275 237 234 233 234 252 141 145 143 139 140 189 186 180 170 154 124 174 182 151 151 139 141 143 144 150 147 146 145 143 153 155 154 149 156 158 156 168 168 187
268 315 314 314 323 157 239 262 269 273 252 230 232 225 200 141 158 114 125 130 162 150 123 156 163 149 160 174 158 154 159 140 143 150 150 149 153 155 157 164 159 161 159 172 173 164 176 173 121
276 302 312 309 241 229 273 271 268 252 221 215 271 239 156 129 115 113 142 162 183 170 167 174 171 165 146 199 169 167 156 151 157 160 155 156 157 166 164 167 162 170 163 164 176 156 130 177 166
315 305 301 317 317 212 306 298 336 360 258 306 309 193 143 157 137 157 161 159 166 166 147 149 183 181 159 171 157 141 140 141 150 160 168 171 171 173 166 159 145 155 143 151 151 179 148 152 129
312 341 343 325 346 310 127 298 351 326 351 330 303 110 148 151 140 134 156 160 155 142 139 132 186 171 147 153 169 180 163 166 172 170 174 172 166 161 168 162 148 148 137 132 130 112 132 86 117
255 311 304 289 299 329 340 71 317 12 353 14 285 133 187 160 156 177 145 174 141 135 126 111 139 162 175 142 174 176 184 169 156 148 150 135 141 145 149 147 144 145 140 138 149 154 145 136 155
276 301 300 251 250 27 288 117 356 1 58 352 11 4 303 156 136 136 152 157 155 155 141 185 153 111 131 154 170 192 186 160 148 148 154 143 142 141 149 145 149 151 152 160 163 168 157 147 196
358 11 347 12 17 215 358 74 55 2 26 82 7 360 68 64 135 147 177 161 169 147 152 166 178 147 112 142 178 193 154 149 168 169 172 156 150 153 179 151 157 163 174 172 172 177 164 158 180
308 58 344 20 45 321 21 45 19 4 39 23 42 359 13 93 148 167 214 180 168 140 169 169 170 144 130 121 156 208 102 159 131 156 146 167 173 168 183 172 166 189 204 173 177 191 176 171 168
312 22 164 302 180 46 5 352 344 4 16 47 64 19 9 18 27 170 182 204 158 192 183 181 172 163 167 152 170 175 186 162 174 188 180 165 149 176 173 179 186 187 190 198 209 246 214 155 196
56 292 34 344 37 77 341 65 5 6 7 15 31 49 357 19 32 36 45 54 224 237 186 186 176 189 175 171 186 188 202 206 194 189 202 181 173 181 191 181 183 180 186 196 199 180 145 143 166
359 18 26 119 32 20 49 70 8 353 357 22 13 21 7 18 19 17 23 16 15 355 209 189 204 161 168 183 187 186 208 210 189 210 214 197 186 184 164 166 175 175 188 183 197 149 170 168 150
68 36 49 87 334 34 83 61 323 340 360 35 29 22 24 23 17 18 28 21 29 26 41 166 184 190 183 183 192 203 218 215 210 208 214 210 202 184 166 176 177 161 194 188 202 173 172 158 157